Tracking 17856 objects as of 27-September-2016
HD Live streaming from Space Station
objects crossing your sky now

COSMOS 2251 DEB

Track COSMOS 2251 DEB now!
10-day predictions


NORAD ID: 35448
Int'l Code: 1993-036AKS
Perigee: 756.8 km
Apogee: 774.5 km
Inclination: 73.9 °
Period: 100.0 minutes
Semi major axis: 7136 km
RCS: 0.0138 m2 (small)
Launch date: June 16, 1993
Source: Commonwealth of Independent States (former USSR) (CIS)
Launch site: PLESETSK MISSILE AND SPACE COMPLEX (PKMTR)

Note: This is SATELLITE DEBRIS
Your satellite tracking list
Your tracking list is empty





NASA's NSSDC Master Catalog

Two Line Element Set (TLE):
1 35448U 93036AKS 16269.71099831  .00000644  00000-0  21309-3 0  9999
2 35448  73.9077 269.8617 0012404  64.1660 296.0772 14.39985809388459
Source of the keplerian elements: AFSPC

N2YO: 444